Weather History for KHCD - April, 2014

Change the Weather History Date:

Saturday, April 19, 2014

  Actual Average Record
Temperature  
Mean Temperature 56 °F -  
Max Temperature 68 °F 59 °F 138 °F (2004)
Min Temperature 43 °F 38 °F 19 °F (1988)
Degree Days  
Heating Degree Days 10    
Growing Degree Days 6 (Base 50)    
Moisture  
Dew Point 43 °F    
Average Humidity 71    
Maximum Humidity 93    
Minimum Humidity 52    
Precipitation  
Precipitation 0.00 in - - ()
Sea Level Pressure  
Sea Level Pressure 30.03 in    
Wind  
Wind Speed 13 mph (SSE)    
Max Wind Speed 22 mph    
Max Gust Speed 30 mph    
Visibility 10 miles    
Events Rain    
Averages and records for this station are not official NWS values.
T = Trace of Precipitation, MM = Missing Value Source: NWS Daily Summary

Daily Weather History Graph

Daily Weather History Graph

Search for Another Location

Airport or City:

Trip Planner

Search our weather history database for the weather conditions in past years. The results will help you decide how hot, cold, wet, or windy it might be!

Date:

Astronomy

Apr. 19, 2014 Rise Set
Actual Time 6:26 AM CDT 8:07 PM CDT
Civil Twilight 5:55 AM CDT 8:38 PM CDT
Nautical Twilight 5:17 AM CDT 9:16 PM CDT
Astronomical Twilight 4:37 AM CDT 9:57 PM CDT
Moon No Moon Rise 9:39 AM CDT (4/19)
Length of Visible Light 14h 43m
Length of Day
13h 41m
Waning Gibbous, 78% of the Moon is Illuminated
Apr 19
Waning Gibbous
Apr 22
Last Quarter
Apr 29
New
May 6
First Quarter
May 14
Full

Hourly Weather History & Observations

Time (CDT) Temp. Windchill Dew Point Humidity Pressure Visibility Wind Dir Wind Speed Gust Speed Precip Events Conditions
12:13 AM 44.1 °F 37.1 °F 33.4 °F 66% 30.12 in 10.0 mi ESE 15.0 mph 20.7 mph N/A   Clear
12:33 AM 44.2 °F 37.0 °F 33.4 °F 66% 30.11 in 10.0 mi ESE 16.1 mph - N/A   Clear
12:52 AM 43.7 °F 36.0 °F 33.8 °F 68% 30.11 in 10.0 mi ESE 17.3 mph - N/A   Clear
1:13 AM 43.5 °F 36.4 °F 33.8 °F 69% 30.10 in 10.0 mi ESE 15.0 mph - N/A   Clear
1:33 AM 43.3 °F 35.8 °F 34.0 °F 70% 30.09 in 10.0 mi ESE 16.1 mph 23.0 mph N/A   Clear
1:53 AM 43.3 °F 35.5 °F 34.0 °F 70% 30.09 in 10.0 mi ESE 17.3 mph - N/A   Clear
2:13 AM 43.3 °F 35.8 °F 34.0 °F 70% 30.09 in 10.0 mi ESE 16.1 mph - N/A   Clear
2:33 AM 43.7 °F 36.0 °F 34.2 °F 69% 30.08 in 10.0 mi SE 17.3 mph 21.9 mph N/A   Clear
2:53 AM 43.9 °F 36.5 °F 34.2 °F 69% 30.08 in 10.0 mi SE 16.1 mph 21.9 mph N/A   Clear
3:13 AM 44.2 °F 37.0 °F 34.3 °F 68% 30.08 in 10.0 mi SE 16.1 mph 21.9 mph N/A   Clear
3:33 AM 43.9 °F 36.5 °F 34.7 °F 70% 30.08 in 10.0 mi SE 16.1 mph - N/A   Clear
4:13 AM 44.1 °F 35.9 °F 34.7 °F 70% 30.04 in 10.0 mi SE 19.6 mph 23.0 mph N/A   Clear
4:33 AM 44.6 °F 36.6 °F 35.1 °F 69% 30.03 in 10.0 mi SE 19.6 mph 28.8 mph N/A   Clear
4:53 AM 46.4 °F 39.2 °F 34.9 °F 64% 30.04 in 10.0 mi SE 18.4 mph 29.9 mph N/A   Clear
5:13 AM 46.4 °F 38.7 °F 34.7 °F 64% 30.04 in 10.0 mi SE 20.7 mph 27.6 mph N/A   Clear
5:33 AM 45.7 °F 37.8 °F 35.1 °F 66% 30.04 in 10.0 mi SE 20.7 mph 29.9 mph N/A   Scattered Clouds
5:53 AM 45.1 °F 36.9 °F 34.9 °F 67% 30.04 in 10.0 mi SE 21.9 mph 28.8 mph N/A   Clear
6:13 AM 44.8 °F 37.1 °F 35.1 °F 69% 30.05 in 10.0 mi SE 18.4 mph 28.8 mph N/A   Clear
6:33 AM 44.2 °F 36.2 °F 35.1 °F 70% 30.04 in 10.0 mi SE 19.6 mph 26.5 mph N/A   Clear
6:53 AM 43.9 °F 35.2 °F 35.6 °F 73% 30.03 in 10.0 mi SE 21.9 mph 27.6 mph N/A   Mostly Cloudy
7:13 AM 43.7 °F 35.0 °F 36.0 °F 74% 30.04 in 10.0 mi SE 21.9 mph 26.5 mph N/A   Scattered Clouds
7:33 AM 44.2 °F 36.4 °F 36.7 °F 75% 30.03 in 10.0 mi SE 18.4 mph 27.6 mph N/A   Clear
7:53 AM 44.6 °F 36.9 °F 37.4 °F 76% 30.03 in 10.0 mi SE 18.4 mph 26.5 mph N/A   Clear
8:13 AM 45.9 °F 39.7 °F 38.3 °F 75% 30.04 in 10.0 mi SE 13.8 mph 20.7 mph N/A   Clear
8:33 AM 47.3 °F - 39.0 °F 73% 30.04 in 7.0 mi SSE 15.0 mph 23.0 mph N/A   Mostly Cloudy
8:53 AM 47.7 °F - 38.7 °F 71% 30.05 in 7.0 mi SE 13.8 mph 23.0 mph N/A   Overcast
9:13 AM 47.8 °F - 39.0 °F 71% 30.04 in 10.0 mi SSE 11.5 mph 20.7 mph N/A   Overcast
9:33 AM 48.4 °F - 39.6 °F 72% 30.03 in 10.0 mi SSE 13.8 mph 20.7 mph N/A   Overcast
9:53 AM 48.7 °F - 39.9 °F 72% 30.03 in 10.0 mi SSE 11.5 mph 23.0 mph N/A   Overcast
10:13 AM 50.0 °F - 40.5 °F 70% 30.03 in 10.0 mi SSE 8.1 mph 18.4 mph N/A   Overcast
10:33 AM 51.8 °F - 41.4 °F 68% 30.03 in 10.0 mi SSE 11.5 mph 17.3 mph N/A   Overcast
10:53 AM 53.2 °F - 42.1 °F 66% 30.03 in 10.0 mi SSE 11.5 mph 20.7 mph N/A   Overcast
11:12 AM 55.0 °F - 43.2 °F 64% 30.02 in 10.0 mi SSE 12.7 mph 17.3 mph N/A   Overcast
11:33 AM 57.6 °F - 43.7 °F 60% 30.01 in 10.0 mi South 15.0 mph 26.5 mph N/A   Mostly Cloudy
11:53 AM 58.5 °F - 43.3 °F 57% 30.00 in 10.0 mi South 16.1 mph 26.5 mph N/A   Mostly Cloudy
12:13 PM 58.6 °F - 44.4 °F 59% 30.00 in 10.0 mi South 15.0 mph 24.2 mph N/A   Mostly Cloudy
12:33 PM 59.9 °F - 44.6 °F 57% 29.99 in 10.0 mi South 11.5 mph 21.9 mph N/A   Overcast
12:53 PM 61.7 °F - 46.0 °F 56% 29.99 in 10.0 mi South 8.1 mph 17.3 mph N/A   Overcast
1:13 PM 64.0 °F - 47.3 °F 54% 29.98 in 10.0 mi South 11.5 mph 17.3 mph N/A   Mostly Cloudy
1:33 PM 66.0 °F - 48.4 °F 53% 29.96 in 10.0 mi South 10.4 mph - N/A   Mostly Cloudy
1:53 PM 68.0 °F - 50.0 °F 52% 29.97 in 10.0 mi SSW 9.2 mph - N/A   Overcast
2:13 PM 66.6 °F - 51.8 °F 59% 29.98 in 10.0 mi West 15.0 mph 19.6 mph N/A   Overcast
2:32 PM 66.2 °F - 51.8 °F 60% 29.98 in 10.0 mi WSW 9.2 mph - N/A   Overcast
2:53 PM 64.4 °F - 51.1 °F 62% 29.99 in 10.0 mi West 10.4 mph 19.6 mph N/A   Overcast
3:13 PM 64.0 °F - 49.8 °F 60% 29.99 in 10.0 mi West 11.5 mph - N/A   Scattered Clouds
3:32 PM 65.3 °F - 50.4 °F 58% 29.99 in 10.0 mi West 11.5 mph - N/A   Clear
3:53 PM 64.6 °F - 51.1 °F 62% 29.99 in 10.0 mi WNW 8.1 mph - N/A   Clear
4:13 PM 63.9 °F - 50.9 °F 63% 29.99 in 10.0 mi WNW 8.1 mph - N/A   Clear
4:33 PM 62.6 °F - 50.4 °F 64% 29.98 in 10.0 mi NW 5.8 mph - N/A   Mostly Cloudy
4:53 PM 62.2 °F - 50.2 °F 65% 29.98 in 10.0 mi NW 5.8 mph - N/A   Mostly Cloudy
5:13 PM 61.2 °F - 50.4 °F 68% 29.99 in 10.0 mi NW 5.8 mph - N/A   Overcast
5:33 PM 60.1 °F - 50.0 °F 69% 29.99 in 10.0 mi West 3.5 mph - N/A   Overcast
5:53 PM 59.9 °F - 50.5 °F 71% 29.99 in 10.0 mi Calm Calm - N/A   Overcast
6:13 PM 60.6 °F - 52.2 °F 74% 29.99 in 10.0 mi West 4.6 mph - N/A Rain Light Rain
6:33 PM 60.8 °F - 49.3 °F 66% 30.00 in 10.0 mi WNW 5.8 mph - N/A   Scattered Clouds
6:52 PM 59.9 °F - 48.7 °F 67% 30.00 in 10.0 mi NW 5.8 mph - N/A   Clear
7:13 PM 58.1 °F - 48.2 °F 70% 30.00 in 10.0 mi Calm Calm - N/A   Clear
7:33 PM 57.2 °F - 48.7 °F 73% 30.00 in 10.0 mi Calm Calm - N/A   Clear
7:53 PM 56.7 °F - 48.0 °F 73% 30.01 in 10.0 mi Calm Calm - N/A   Scattered Clouds
8:13 PM 53.4 °F - 48.7 °F 84% 30.01 in 10.0 mi Calm Calm - N/A   Scattered Clouds
8:33 PM 51.6 °F - 48.7 °F 90% 30.01 in 10.0 mi Calm Calm - N/A   Mostly Cloudy
8:53 PM 51.8 °F - 48.6 °F 89% 30.02 in 10.0 mi Calm Calm - N/A   Mostly Cloudy
9:13 PM 50.4 °F - 48.4 °F 93% 30.02 in 7.0 mi Calm Calm - N/A   Mostly Cloudy
9:33 PM 50.0 °F - 46.9 °F 89% 30.02 in 10.0 mi Calm Calm - N/A   Mostly Cloudy
9:52 PM 49.1 °F - 46.9 °F 92% 30.02 in 7.0 mi Calm Calm - N/A   Overcast
10:13 PM 49.1 °F - 46.8 °F 92% 30.02 in 7.0 mi Calm Calm - N/A   Overcast
10:33 PM 48.7 °F - 46.6 °F 92% 30.02 in 7.0 mi Calm Calm - N/A   Overcast
10:53 PM 49.3 °F - 46.9 °F 92% 30.02 in 7.0 mi Calm Calm - N/A   Overcast
11:13 PM 49.8 °F - 47.1 °F 90% 30.03 in 7.0 mi Calm Calm - N/A   Overcast
11:33 PM 49.8 °F - 47.1 °F 90% 30.03 in 7.0 mi Calm Calm - N/A   Overcast
11:53 PM 49.6 °F - 46.8 °F 90% 30.03 in 7.0 mi Calm Calm - N/A   Overcast